![]() |
EMODnet Physics ERDDAP
Easier access to scientific data |
log in|
Brought to you by EMODnet Physics |
| Dataset Title: | NDBC - Collection of dew point temperature (DEWT) TimeSeries - IN SITU MultiPointTimeSeriesObservation
|
| Institution: | NDBC (Dataset ID: TS_DEWT_NDBC) |
| Information: | Summary
| License
| FGDC
| ISO 19115
| Metadata
| Background
| Subset
| Data Access Form
| Make a graph
|
| Name | Last modified | Size | Description | |
|---|---|---|---|---|
| Parent Directory | - | - | ||
| OSGN6_TS_DEWT_012015.nc | 14-Dec-2024 07:03 | 1467453 | ||
| OSGN6_TS_DEWT_012016.nc | 14-Dec-2024 07:10 | 1466997 | ||
| OSGN6_TS_DEWT_012017.nc | 14-Dec-2024 07:18 | 1467949 | ||
| OSGN6_TS_DEWT_012018.nc | 14-Dec-2024 07:25 | 1473512 | ||
| OSGN6_TS_DEWT_012019.nc | 14-Dec-2024 07:33 | 1469239 | ||
| OSGN6_TS_DEWT_012021.nc | 14-Dec-2024 07:50 | 1470861 | ||
| OSGN6_TS_DEWT_012022.nc | 14-Dec-2024 07:59 | 1163000 | ||
| OSGN6_TS_DEWT_012023.nc | 14-Dec-2024 08:08 | 1473636 | ||
| OSGN6_TS_DEWT_012025.nc | 07-Feb-2025 19:40 | 1144370 | ||
| OSGN6_TS_DEWT_012026.nc | 02-Feb-2026 20:23 | 1470759 | ||
| OSGN6_TS_DEWT_022015.nc | 14-Dec-2024 07:03 | 1470333 | ||
| OSGN6_TS_DEWT_022016.nc | 14-Dec-2024 07:11 | 420854 | ||
| OSGN6_TS_DEWT_022017.nc | 14-Dec-2024 07:18 | 1478548 | ||
| OSGN6_TS_DEWT_022018.nc | 14-Dec-2024 07:26 | 1471017 | ||
| OSGN6_TS_DEWT_022019.nc | 14-Dec-2024 07:33 | 1477758 | ||
| OSGN6_TS_DEWT_022021.nc | 14-Dec-2024 07:51 | 1466329 | ||
| OSGN6_TS_DEWT_022022.nc | 14-Dec-2024 08:00 | 1627422 | ||
| OSGN6_TS_DEWT_022023.nc | 14-Dec-2024 08:10 | 1627598 | ||
| OSGN6_TS_DEWT_022025.nc | 01-Mar-2025 09:07 | 1475653 | ||
| OSGN6_TS_DEWT_022026.nc | 01-Mar-2026 11:11 | 1625660 | ||
| OSGN6_TS_DEWT_032014.nc | 14-Dec-2024 06:56 | 1626251 | ||
| OSGN6_TS_DEWT_032015.nc | 14-Dec-2024 07:04 | 1627808 | ||
| OSGN6_TS_DEWT_032016.nc | 14-Dec-2024 07:12 | 1478318 | ||
| OSGN6_TS_DEWT_032017.nc | 14-Dec-2024 07:19 | 1627338 | ||
| OSGN6_TS_DEWT_032018.nc | 14-Dec-2024 07:26 | 1160144 | ||
| OSGN6_TS_DEWT_032019.nc | 14-Dec-2024 07:34 | 1627530 | ||
| OSGN6_TS_DEWT_032020.nc | 14-Dec-2024 07:43 | 1627777 | ||
| OSGN6_TS_DEWT_032021.nc | 14-Dec-2024 07:52 | 1477965 | ||
| OSGN6_TS_DEWT_032022.nc | 14-Dec-2024 08:01 | 1474672 | ||
| OSGN6_TS_DEWT_032023.nc | 14-Dec-2024 08:12 | 1472110 | ||
| OSGN6_TS_DEWT_032025.nc | 02-Apr-2025 06:25 | 1461943 | ||
| OSGN6_TS_DEWT_032026.nc | 25-Mar-2026 14:36 | 1477884 | ||
| OSGN6_TS_DEWT_042014.nc | 14-Dec-2024 06:57 | 1477975 | ||
| OSGN6_TS_DEWT_042015.nc | 14-Dec-2024 07:05 | 1473058 | ||
| OSGN6_TS_DEWT_042016.nc | 14-Dec-2024 07:12 | 1476153 | ||
| OSGN6_TS_DEWT_042017.nc | 14-Dec-2024 07:20 | 1476086 | ||
| OSGN6_TS_DEWT_042018.nc | 14-Dec-2024 07:27 | 1477762 | ||
| OSGN6_TS_DEWT_042019.nc | 14-Dec-2024 07:35 | 1477404 | ||
| OSGN6_TS_DEWT_042020.nc | 14-Dec-2024 07:44 | 1477663 | ||
| OSGN6_TS_DEWT_042021.nc | 14-Dec-2024 07:53 | 1477803 | ||
| OSGN6_TS_DEWT_042022.nc | 14-Dec-2024 08:01 | 1477868 | ||
| OSGN6_TS_DEWT_042023.nc | 14-Dec-2024 08:14 | 1477170 | ||
| OSGN6_TS_DEWT_042025.nc | 30-Apr-2025 06:30 | 1627774 | ||
| OSGN6_TS_DEWT_052014.nc | 14-Dec-2024 06:57 | 1471029 | ||
| OSGN6_TS_DEWT_052015.nc | 14-Dec-2024 07:05 | 1475868 | ||
| OSGN6_TS_DEWT_052016.nc | 14-Dec-2024 07:13 | 1474285 | ||
| OSGN6_TS_DEWT_052017.nc | 14-Dec-2024 07:20 | 1626956 | ||
| OSGN6_TS_DEWT_052018.nc | 14-Dec-2024 07:27 | 1627809 | ||
| OSGN6_TS_DEWT_052019.nc | 14-Dec-2024 07:35 | 1478542 | ||
| OSGN6_TS_DEWT_052020.nc | 14-Dec-2024 07:44 | 1477802 | ||
| OSGN6_TS_DEWT_052021.nc | 14-Dec-2024 07:53 | 1627635 | ||
| OSGN6_TS_DEWT_052022.nc | 14-Dec-2024 08:02 | 1627319 | ||
| OSGN6_TS_DEWT_052023.nc | 14-Dec-2024 08:15 | 1625654 | ||
| OSGN6_TS_DEWT_052025.nc | 01-Jun-2025 07:43 | 1627593 | ||
| OSGN6_TS_DEWT_062014.nc | 14-Dec-2024 06:58 | 1625329 | ||
| OSGN6_TS_DEWT_062015.nc | 14-Dec-2024 07:06 | 1627395 | ||
| OSGN6_TS_DEWT_062016.nc | 14-Dec-2024 07:14 | 1627882 | ||
| OSGN6_TS_DEWT_062017.nc | 14-Dec-2024 07:21 | 1476567 | ||
| OSGN6_TS_DEWT_062018.nc | 14-Dec-2024 07:28 | 1469311 | ||
| OSGN6_TS_DEWT_062019.nc | 14-Dec-2024 07:36 | 418800 | ||
| OSGN6_TS_DEWT_062020.nc | 14-Dec-2024 07:45 | 1471823 | ||
| OSGN6_TS_DEWT_062021.nc | 14-Dec-2024 07:54 | 1477588 | ||
| OSGN6_TS_DEWT_062022.nc | 14-Dec-2024 08:03 | 1477902 | ||
| OSGN6_TS_DEWT_062023.nc | 14-Dec-2024 08:16 | 1477286 | ||
| OSGN6_TS_DEWT_062025.nc | 01-Jul-2025 07:55 | 1472960 | ||
| OSGN6_TS_DEWT_072014.nc | 14-Dec-2024 06:59 | 1477954 | ||
| OSGN6_TS_DEWT_072015.nc | 14-Dec-2024 07:06 | 1477700 | ||
| OSGN6_TS_DEWT_072016.nc | 14-Dec-2024 07:14 | 1152636 | ||
| OSGN6_TS_DEWT_072017.nc | 14-Dec-2024 07:21 | 1477798 | ||
| OSGN6_TS_DEWT_072018.nc | 14-Dec-2024 07:29 | 994767 | ||
| OSGN6_TS_DEWT_072019.nc | 14-Dec-2024 07:37 | 1477834 | ||
| OSGN6_TS_DEWT_072020.nc | 14-Dec-2024 07:46 | 1477021 | ||
| OSGN6_TS_DEWT_072021.nc | 14-Dec-2024 07:55 | 1627093 | ||
| OSGN6_TS_DEWT_072022.nc | 14-Dec-2024 08:04 | 1626163 | ||
| OSGN6_TS_DEWT_072023.nc | 14-Dec-2024 08:18 | 1625545 | ||
| OSGN6_TS_DEWT_072025.nc | 01-Aug-2025 08:36 | 1471292 | ||
| OSGN6_TS_DEWT_082014.nc | 14-Dec-2024 06:59 | 1626975 | ||
| OSGN6_TS_DEWT_082015.nc | 14-Dec-2024 07:07 | 1627659 | ||
| OSGN6_TS_DEWT_082016.nc | 14-Dec-2024 07:15 | 1478784 | ||
| OSGN6_TS_DEWT_082017.nc | 14-Dec-2024 07:22 | 1627213 | ||
| OSGN6_TS_DEWT_082018.nc | 14-Dec-2024 07:30 | 1626567 | ||
| OSGN6_TS_DEWT_082019.nc | 14-Dec-2024 07:38 | 1626405 | ||
| OSGN6_TS_DEWT_082020.nc | 14-Dec-2024 07:47 | 1143470 | ||
| OSGN6_TS_DEWT_082021.nc | 14-Dec-2024 07:55 | 1468829 | ||
| OSGN6_TS_DEWT_082022.nc | 14-Dec-2024 08:05 | 1627801 | ||
| OSGN6_TS_DEWT_082023.nc | 14-Dec-2024 08:19 | 1627746 | ||
| OSGN6_TS_DEWT_082025.nc | 01-Sep-2025 06:41 | 1627821 | ||
| OSGN6_TS_DEWT_092014.nc | 14-Dec-2024 07:00 | 1478250 | ||
| OSGN6_TS_DEWT_092015.nc | 14-Dec-2024 07:08 | 1475754 | ||
| OSGN6_TS_DEWT_092016.nc | 14-Dec-2024 07:15 | 1477719 | ||
| OSGN6_TS_DEWT_092017.nc | 14-Dec-2024 07:22 | 1474682 | ||
| OSGN6_TS_DEWT_092018.nc | 14-Dec-2024 07:30 | 1627353 | ||
| OSGN6_TS_DEWT_092019.nc | 14-Dec-2024 07:39 | 1627787 | ||
| OSGN6_TS_DEWT_092020.nc | 14-Dec-2024 07:47 | 1478015 | ||
| OSGN6_TS_DEWT_092021.nc | 14-Dec-2024 07:56 | 1627845 | ||
| OSGN6_TS_DEWT_092022.nc | 14-Dec-2024 08:05 | 1627761 | ||
| OSGN6_TS_DEWT_092023.nc | 14-Dec-2024 08:20 | 1477048 | ||
| OSGN6_TS_DEWT_092025.nc | 01-Oct-2025 10:10 | 1148825 | ||
| OSGN6_TS_DEWT_102014.nc | 14-Dec-2024 07:01 | 1626012 | ||
| OSGN6_TS_DEWT_102015.nc | 14-Dec-2024 07:09 | 1627821 | ||
| OSGN6_TS_DEWT_102016.nc | 14-Dec-2024 07:16 | 1627844 | ||
| OSGN6_TS_DEWT_102017.nc | 14-Dec-2024 07:23 | 1627378 | ||
| OSGN6_TS_DEWT_102018.nc | 14-Dec-2024 07:31 | 1476731 | ||
| OSGN6_TS_DEWT_102019.nc | 14-Dec-2024 07:39 | 1477321 | ||
| OSGN6_TS_DEWT_102020.nc | 14-Dec-2024 07:48 | 1473905 | ||
| OSGN6_TS_DEWT_102021.nc | 14-Dec-2024 07:57 | 1471705 | ||
| OSGN6_TS_DEWT_102022.nc | 14-Dec-2024 08:06 | 911736 | ||
| OSGN6_TS_DEWT_102023.nc | 14-Dec-2024 08:20 | 1477998 | ||
| OSGN6_TS_DEWT_102025.nc | 01-Nov-2025 09:45 | 1477066 | ||
| OSGN6_TS_DEWT_112014.nc | 14-Dec-2024 07:01 | 1477794 | ||
| OSGN6_TS_DEWT_112015.nc | 14-Dec-2024 07:09 | 1477603 | ||
| OSGN6_TS_DEWT_112016.nc | 14-Dec-2024 07:17 | 1477306 | ||
| OSGN6_TS_DEWT_112017.nc | 14-Dec-2024 07:24 | 1476500 | ||
| OSGN6_TS_DEWT_112018.nc | 14-Dec-2024 07:32 | 1471670 | ||
| OSGN6_TS_DEWT_112020.nc | 14-Dec-2024 07:49 | 1477591 | ||
| OSGN6_TS_DEWT_112021.nc | 14-Dec-2024 07:58 | 1477936 | ||
| OSGN6_TS_DEWT_112022.nc | 14-Dec-2024 08:07 | 1477964 | ||
| OSGN6_TS_DEWT_112023.nc | 14-Dec-2024 08:21 | 1477780 | ||
| OSGN6_TS_DEWT_112024.nc | 17-Jan-2025 21:01 | 1477275 | ||
| OSGN6_TS_DEWT_112025.nc | 01-Dec-2025 07:24 | 1627469 | ||
| OSGN6_TS_DEWT_122014.nc | 14-Dec-2024 07:02 | 1476986 | ||
| OSGN6_TS_DEWT_122015.nc | 14-Dec-2024 07:10 | 1470167 | ||
| OSGN6_TS_DEWT_122016.nc | 14-Dec-2024 07:17 | 1143460 | ||
| OSGN6_TS_DEWT_122017.nc | 14-Dec-2024 07:24 | 1627848 | ||
| OSGN6_TS_DEWT_122018.nc | 14-Dec-2024 07:32 | 1626808 | ||
| OSGN6_TS_DEWT_122020.nc | 14-Dec-2024 07:50 | 1627771 | ||
| OSGN6_TS_DEWT_122021.nc | 14-Dec-2024 07:58 | 1627604 | ||
| OSGN6_TS_DEWT_122022.nc | 14-Dec-2024 08:07 | 1627763 | ||
| OSGN6_TS_DEWT_122023.nc | 14-Dec-2024 08:21 | 1627528 | ||
| OSGN6_TS_DEWT_122024.nc | 22-Jan-2025 20:37 | 1625866 | ||
| OSGN6_TS_DEWT_122025.nc | 01-Jan-2026 08:35 | 1627298 | ||